Weather History for Cortez, CO

Change the Weather History Date:

Saturday, February 1, 2014

  Actual Average Record
Temperature  
Mean Temperature 24 °F 29 °F  
Max Temperature 37 °F 43 °F 60 °F (2003)
Min Temperature 10 °F 16 °F -5 °F (2007)
Degree Days  
Heating Degree Days 41 36  
Month to date heating degree days 41 36  
Since 1 July heating degree days 3797 3841  
Cooling Degree Days 0 0  
Month to date cooling degree days 0 0  
Year to date cooling degree days 0 0  
Moisture  
Dew Point 25 °F    
Average Humidity 74    
Maximum Humidity 100    
Minimum Humidity 47    
Precipitation  
Precipitation 0.05 in 0.02 in 0.09 in (2000)
Month to date precipitation 0.05 0.02  
Year to date precipitation 0.30 1.03  
Sea Level Pressure  
Sea Level Pressure 29.82 in    
Wind  
Wind Speed 5 mph (West)    
Max Wind Speed 14 mph    
Max Gust Speed 21 mph    
Visibility 5 miles    
Events Snow    
T = Trace of Precipitation, MM = Missing Value Source: NWS Daily Summary

Daily Weather History Graph

Daily Weather History Graph

Search for Another Location

Airport:

Trip Planner

Search our weather history database for the weather conditions in past years. The results will help you decide how hot, cold, wet, or windy it might be!

Date:

Astronomy

Feb. 01, 2014 Rise Set
Actual Time 7:17 AM MST 5:39 PM MST
Civil Twilight 6:50 AM MST 6:06 PM MST
Nautical Twilight 6:18 AM MST 6:37 PM MST
Astronomical Twilight 5:48 AM MST 7:08 PM MST
Moon 8:12 AM MST (2/1) 8:13 PM MST (2/1)
Length of Visible Light 11h 16m
Length of Day
10h 21m
Waxing Crescent, 5% of the Moon is Illuminated
Feb 1
Waxing Crescent
Feb 6
First Quarter
Feb 14
Full
Feb 22
Last Quarter
Mar 1
New

Hourly Weather History & Observations

Time (MST) Temp. Windchill Dew Point Humidity Pressure Visibility Wind Dir Wind Speed Gust Speed Precip Events Conditions
12:08 AM 30.0 °F 24.1 °F 28.0 °F 92% 29.75 in 1.2 mi East 5.8 mph - 0.01 in Snow Light Snow
12:20 AM 30.0 °F 26.5 °F 28.0 °F 92% 29.75 in 1.2 mi ESE 3.5 mph - 0.02 in Snow Light Snow
12:27 AM 28.9 °F - 28.9 °F 100% 29.75 in 2.0 mi Calm Calm - 0.02 in Snow Light Snow
12:41 AM 28.9 °F 25.2 °F 28.9 °F 100% 29.75 in 1.5 mi SE 3.5 mph - 0.02 in Snow Light Snow
12:48 AM 28.4 °F 24.6 °F 28.4 °F 100% 29.75 in 1.2 mi SSE 3.5 mph - 0.02 in Snow Light Snow
12:53 AM 28.9 °F 25.2 °F 28.0 °F 96% 29.70 in 1.5 mi SSE 3.5 mph - 0.03 in Snow Light Snow
1:16 AM 28.9 °F 25.2 °F 28.0 °F 96% 29.75 in 2.0 mi South 3.5 mph - 0.00 in Snow Light Snow
1:25 AM 28.9 °F 25.2 °F 28.0 °F 96% 29.75 in 2.0 mi South 3.5 mph - 0.00 in Snow Light Snow
1:34 AM 28.9 °F - 28.0 °F 96% 29.75 in 2.0 mi Calm Calm - 0.00 in Snow Light Snow
1:42 AM 28.9 °F - 28.0 °F 96% 29.75 in 1.2 mi Calm Calm - 0.01 in Snow Light Snow
1:53 AM 28.9 °F - 28.0 °F 96% 29.71 in 1.2 mi Calm Calm - 0.01 in Snow Light Snow
2:00 AM 28.9 °F 25.2 °F 28.0 °F 96% 29.75 in 1.5 mi WSW 3.5 mph - 0.00 in Snow Light Snow
2:05 AM 28.0 °F 24.2 °F 28.0 °F 100% 29.75 in 2.0 mi West 3.5 mph - 0.00 in Snow Light Snow
2:20 AM 28.0 °F - 27.0 °F 96% 29.74 in 2.5 mi Calm Calm - 0.00 in Snow Light Snow
2:30 AM 28.0 °F - 27.0 °F 96% 29.74 in 5.0 mi Calm Calm - 0.00 in Snow Light Snow
2:53 AM 28.0 °F - 27.0 °F 96% 29.73 in 5.0 mi Calm Calm - 0.00 in Snow Light Snow
2:58 AM 28.0 °F - 28.0 °F 100% 29.75 in 2.5 mi Calm Calm - 0.00 in Snow Light Snow
3:02 AM 28.0 °F - 27.0 °F 96% 29.74 in 1.8 mi Calm Calm - 0.00 in Snow Light Snow
3:15 AM 28.0 °F - 27.0 °F 96% 29.74 in 2.5 mi Calm Calm - 0.01 in Snow Light Snow
3:23 AM 28.0 °F - 27.0 °F 96% 29.74 in 4.0 mi Calm Calm - 0.01 in Snow Light Snow
3:30 AM 28.0 °F 22.8 °F 27.0 °F 96% 29.75 in 4.0 mi WSW 4.6 mph - 0.01 in Snow Light Snow
3:53 AM 28.0 °F - 27.0 °F 96% 29.72 in 3.0 mi Calm Calm - 0.01 in Snow Light Snow
4:53 AM 28.0 °F 24.2 °F 26.1 °F 92% 29.74 in 2.5 mi SW 3.5 mph - 0.00 in Snow Light Snow
5:00 AM 28.0 °F 24.2 °F 26.1 °F 92% 29.76 in 2.5 mi WSW 3.5 mph - 0.00 in Snow Light Snow
5:18 AM 28.0 °F 22.8 °F 27.0 °F 96% 29.76 in 2.0 mi SW 4.6 mph - 0.00 in Snow Light Snow
5:26 AM 28.0 °F 22.8 °F 27.0 °F 96% 29.77 in 1.5 mi WSW 4.6 mph - 0.00 in Snow Light Snow
5:42 AM 28.0 °F 24.2 °F 27.0 °F 96% 29.77 in 2.0 mi West 3.5 mph - 0.00 in Snow Light Snow
5:53 AM 28.0 °F 24.2 °F 27.0 °F 96% 29.76 in 2.0 mi WNW 3.5 mph - 0.01 in Snow Light Snow
6:05 AM 28.0 °F - 27.0 °F 96% 29.78 in 3.0 mi Calm Calm - 0.00 in Snow Light Snow
6:13 AM 28.0 °F - 27.0 °F 96% 29.78 in 5.0 mi Calm Calm - 0.00 in Snow Light Snow
6:35 AM 27.0 °F - 26.1 °F 96% 29.78 in 10.0 mi Calm Calm - 0.00 in   Overcast
6:53 AM 25.0 °F 19.3 °F 24.1 °F 96% 29.80 in 10.0 mi NW 4.6 mph - 0.00 in   Mostly Cloudy
6:58 AM 25.0 °F 20.7 °F 24.1 °F 96% 29.79 in 10.0 mi WNW 3.5 mph - N/A   Scattered Clouds
7:37 AM 26.1 °F - 24.1 °F 92% 29.82 in 9.0 mi Calm Calm - 0.00 in   Overcast
7:45 AM 25.0 °F 20.7 °F 25.0 °F 100% 29.81 in 10.0 mi SE 3.5 mph - 0.00 in   Overcast
7:53 AM 26.1 °F 21.9 °F 26.1 °F 100% 29.82 in 10.0 mi South 3.5 mph - 0.00 in   Overcast
8:00 AM 27.0 °F 23.0 °F 26.1 °F 96% 29.82 in 10.0 mi SW 3.5 mph - N/A   Overcast
8:07 AM 27.0 °F - 26.1 °F 96% 29.83 in 9.0 mi Calm Calm - N/A   Overcast
8:53 AM 28.9 °F 23.9 °F 27.0 °F 92% 29.83 in 10.0 mi SSE 4.6 mph - 0.00 in   Overcast
9:43 AM 30.0 °F 26.5 °F 27.0 °F 88% 29.86 in 2.5 mi Variable 3.5 mph - 0.00 in Snow Light Snow
9:46 AM 30.0 °F 25.2 °F 27.0 °F 88% 29.86 in 1.8 mi West 4.6 mph - 0.00 in Snow Light Snow
9:53 AM 28.9 °F 21.9 °F 27.0 °F 92% 29.87 in 1.0 mi WNW 6.9 mph - 0.00 in Snow Light Snow
10:03 AM 30.0 °F 25.2 °F 27.0 °F 88% 29.86 in 1.5 mi NNW 4.6 mph - 0.00 in Snow Light Snow
10:05 AM 30.0 °F 25.2 °F 26.1 °F 85% 29.86 in 2.5 mi NNW 4.6 mph - 0.00 in Snow Light Snow
10:12 AM 30.0 °F 26.5 °F 26.1 °F 85% 29.87 in 6.0 mi NNW 3.5 mph - 0.00 in Snow Light Snow
10:22 AM 30.9 °F - 27.0 °F 85% 29.87 in 10.0 mi Calm Calm - 0.00 in   Mostly Cloudy
10:53 AM 30.9 °F 22.8 °F 23.0 °F 72% 29.88 in 10.0 mi NW 9.2 mph - 0.00 in   Mostly Cloudy
11:53 AM 33.1 °F 26.1 °F 26.1 °F 75% 29.86 in 10.0 mi West 8.1 mph - N/A   Scattered Clouds
12:53 PM 35.1 °F 26.9 °F 25.0 °F 67% 29.84 in 10.0 mi WNW 11.5 mph - N/A   Mostly Cloudy
1:53 PM 35.1 °F 27.9 °F 21.9 °F 59% 29.84 in 10.0 mi North 9.2 mph 20.7 mph N/A   Overcast
2:53 PM 34.0 °F 26.6 °F 21.0 °F 59% 29.86 in 10.0 mi WNW 9.2 mph - N/A   Mostly Cloudy
3:53 PM 36.0 °F 31.1 °F 18.0 °F 48% 29.88 in 10.0 mi NW 5.8 mph - N/A   Partly Cloudy
4:53 PM 33.1 °F 24.4 °F 19.0 °F 56% 29.90 in 10.0 mi North 11.5 mph - N/A   Clear
5:53 PM 30.0 °F 22.4 °F 18.0 °F 61% 29.95 in 10.0 mi NNW 8.1 mph - N/A   Clear
6:53 PM 27.0 °F 21.6 °F 17.1 °F 66% 30.01 in 10.0 mi NNW 4.6 mph - N/A   Clear
7:53 PM 26.1 °F 19.4 °F 14.0 °F 60% 30.03 in 10.0 mi Variable 5.8 mph - N/A   Scattered Clouds
8:53 PM 23.0 °F - 15.1 °F 72% 30.04 in 10.0 mi Calm Calm - N/A   Clear
9:53 PM 15.1 °F 7.7 °F 10.9 °F 84% 30.08 in 10.0 mi ESE 4.6 mph - N/A   Clear
10:53 PM 12.9 °F 5.2 °F 9.0 °F 84% 30.09 in 10.0 mi ESE 4.6 mph - N/A   Clear
11:53 PM 10.0 °F -1.9 °F 7.0 °F 87% 30.09 in 10.0 mi NE 8.1 mph - N/A   Clear